﻿測定場所 (Monitoring sites),日付 (Measurement date),時間 (Measurement time),線量率 最大値 (max) μGy/h,線量率 最小値 (min) μGy/h,線量率 平均値 (average) μGy/h,
江戸川 (Edogawa),2016-01-10,23:01～24:00,0.0623,0.0558,0.0592,
江戸川 (Edogawa),2016-01-10,22:01～23:00,0.0638,0.0559,0.0595,
江戸川 (Edogawa),2016-01-10,21:01～22:00,0.0637,0.0549,0.0597,
江戸川 (Edogawa),2016-01-10,20:01～21:00,0.0634,0.0558,0.0594,
江戸川 (Edogawa),2016-01-10,19:01～20:00,0.0630,0.0559,0.0597,
江戸川 (Edogawa),2016-01-10,18:01～19:00,0.0637,0.0566,0.0600,
江戸川 (Edogawa),2016-01-10,17:01～18:00,0.0633,0.0559,0.0597,
江戸川 (Edogawa),2016-01-10,16:01～17:00,0.0629,0.0571,0.0600,
江戸川 (Edogawa),2016-01-10,15:01～16:00,0.0633,0.0579,0.0606,
江戸川 (Edogawa),2016-01-10,14:01～15:00,0.0630,0.0575,0.0603,
江戸川 (Edogawa),2016-01-10,13:01～14:00,0.0640,0.0578,0.0607,
江戸川 (Edogawa),2016-01-10,12:01～13:00,0.0649,0.0580,0.0607,
江戸川 (Edogawa),2016-01-10,11:01～12:00,0.0646,0.0563,0.0608,
江戸川 (Edogawa),2016-01-10,10:01～11:00,0.0634,0.0580,0.0605,
江戸川 (Edogawa),2016-01-10,09:01～10:00,0.0631,0.0577,0.0602,
江戸川 (Edogawa),2016-01-10,08:01～09:00,0.0627,0.0578,0.0603,
江戸川 (Edogawa),2016-01-10,07:01～08:00,0.0634,0.0553,0.0600,
江戸川 (Edogawa),2016-01-10,06:01～07:00,0.0632,0.0566,0.0601,
江戸川 (Edogawa),2016-01-10,05:01～06:00,0.0629,0.0567,0.0599,
江戸川 (Edogawa),2016-01-10,04:01～05:00,0.0635,0.0556,0.0597,
江戸川 (Edogawa),2016-01-10,03:01～04:00,0.0644,0.0562,0.0598,
江戸川 (Edogawa),2016-01-10,02:01～03:00,0.0635,0.0560,0.0599,
江戸川 (Edogawa),2016-01-10,01:01～02:00,0.0626,0.0564,0.0601,
江戸川 (Edogawa),2016-01-10,00:01～01:00,0.0634,0.0561,0.0599,
江戸川 (Edogawa),2016-01-09,23:01～24:00,0.0630,0.0565,0.0596,
江戸川 (Edogawa),2016-01-09,22:01～23:00,0.0632,0.0568,0.0599,
江戸川 (Edogawa),2016-01-09,21:01～22:00,0.0619,0.0570,0.0596,
江戸川 (Edogawa),2016-01-09,20:01～21:00,0.0631,0.0566,0.0594,
江戸川 (Edogawa),2016-01-09,19:01～20:00,0.0625,0.0554,0.0592,
江戸川 (Edogawa),2016-01-09,18:01～19:00,0.0632,0.0560,0.0597,
江戸川 (Edogawa),2016-01-09,17:01～18:00,0.0636,0.0577,0.0598,
江戸川 (Edogawa),2016-01-09,16:01～17:00,0.0649,0.0567,0.0601,
江戸川 (Edogawa),2016-01-09,15:01～16:00,0.0637,0.0563,0.0603,
江戸川 (Edogawa),2016-01-09,14:01～15:00,0.0628,0.0568,0.0600,
江戸川 (Edogawa),2016-01-09,13:01～14:00,0.0633,0.0575,0.0604,
江戸川 (Edogawa),2016-01-09,12:01～13:00,0.0636,0.0566,0.0605,
江戸川 (Edogawa),2016-01-09,11:01～12:00,0.0639,0.0576,0.0605,
江戸川 (Edogawa),2016-01-09,10:01～11:00,0.0647,0.0568,0.0604,
江戸川 (Edogawa),2016-01-09,09:01～10:00,0.0648,0.0567,0.0605,
江戸川 (Edogawa),2016-01-09,08:01～09:00,0.0646,0.0562,0.0607,
江戸川 (Edogawa),2016-01-09,07:01～08:00,0.0638,0.0573,0.0601,
江戸川 (Edogawa),2016-01-09,06:01～07:00,0.0639,0.0561,0.0606,
江戸川 (Edogawa),2016-01-09,05:01～06:00,0.0640,0.0568,0.0605,
江戸川 (Edogawa),2016-01-09,04:01～05:00,0.0639,0.0563,0.0601,
江戸川 (Edogawa),2016-01-09,03:01～04:00,0.0626,0.0561,0.0600,
江戸川 (Edogawa),2016-01-09,02:01～03:00,0.0627,0.0562,0.0599,
江戸川 (Edogawa),2016-01-09,01:01～02:00,0.0630,0.0568,0.0598,
江戸川 (Edogawa),2016-01-09,00:01～01:00,0.0630,0.0563,0.0598,
江戸川 (Edogawa),2016-01-08,23:01～24:00,0.0622,0.0574,0.0596,
江戸川 (Edogawa),2016-01-08,22:01～23:00,0.0624,0.0567,0.0595,
江戸川 (Edogawa),2016-01-08,21:01～22:00,0.0627,0.0566,0.0595,
江戸川 (Edogawa),2016-01-08,20:01～21:00,0.0627,0.0573,0.0600,
江戸川 (Edogawa),2016-01-08,19:01～20:00,0.0641,0.0571,0.0594,
江戸川 (Edogawa),2016-01-08,18:01～19:00,0.0634,0.0560,0.0595,
江戸川 (Edogawa),2016-01-08,17:01～18:00,0.0621,0.0569,0.0598,
江戸川 (Edogawa),2016-01-08,16:01～17:00,0.0645,0.0570,0.0604,
江戸川 (Edogawa),2016-01-08,15:01～16:00,0.0635,0.0573,0.0602,
江戸川 (Edogawa),2016-01-08,14:01～15:00,0.0652,0.0575,0.0604,
江戸川 (Edogawa),2016-01-08,13:01～14:00,0.0649,0.0567,0.0607,
江戸川 (Edogawa),2016-01-08,12:01～13:00,0.0643,0.0582,0.0609,
江戸川 (Edogawa),2016-01-08,11:01～12:00,0.0640,0.0568,0.0600,
江戸川 (Edogawa),2016-01-08,10:01～11:00,0.0626,0.0564,0.0603,
江戸川 (Edogawa),2016-01-08,09:01～10:00,0.0624,0.0564,0.0597,
江戸川 (Edogawa),2016-01-08,08:01～09:00,0.0628,0.0565,0.0592,
江戸川 (Edogawa),2016-01-08,07:01～08:00,0.0631,0.0554,0.0593,
江戸川 (Edogawa),2016-01-08,06:01～07:00,0.0626,0.0553,0.0593,
江戸川 (Edogawa),2016-01-08,05:01～06:00,0.0627,0.0569,0.0595,
江戸川 (Edogawa),2016-01-08,04:01～05:00,0.0626,0.0563,0.0595,
江戸川 (Edogawa),2016-01-08,03:01～04:00,0.0625,0.0564,0.0597,
江戸川 (Edogawa),2016-01-08,02:01～03:00,0.0643,0.0543,0.0595,
江戸川 (Edogawa),2016-01-08,01:01～02:00,0.0632,0.0558,0.0598,
江戸川 (Edogawa),2016-01-08,00:01～01:00,0.0626,0.0569,0.0599,
江戸川 (Edogawa),2016-01-07,23:01～24:00,0.0643,0.0564,0.0601,
江戸川 (Edogawa),2016-01-07,22:01～23:00,0.0639,0.0571,0.0599,
江戸川 (Edogawa),2016-01-07,21:01～22:00,0.0632,0.0561,0.0600,
江戸川 (Edogawa),2016-01-07,20:01～21:00,0.0652,0.0564,0.0594,
江戸川 (Edogawa),2016-01-07,19:01～20:00,0.0632,0.0567,0.0596,
江戸川 (Edogawa),2016-01-07,18:01～19:00,0.0645,0.0577,0.0599,
江戸川 (Edogawa),2016-01-07,17:01～18:00,0.0632,0.0552,0.0596,
江戸川 (Edogawa),2016-01-07,16:01～17:00,0.0641,0.0563,0.0601,
江戸川 (Edogawa),2016-01-07,15:01～16:00,0.0638,0.0570,0.0602,
江戸川 (Edogawa),2016-01-07,14:01～15:00,0.0634,0.0566,0.0601,
江戸川 (Edogawa),2016-01-07,13:01～14:00,0.0641,0.0570,0.0602,
江戸川 (Edogawa),2016-01-07,12:01～13:00,0.0639,0.0575,0.0604,
江戸川 (Edogawa),2016-01-07,11:01～12:00,0.0639,0.0572,0.0603,
江戸川 (Edogawa),2016-01-07,10:01～11:00,0.0645,0.0568,0.0607,
江戸川 (Edogawa),2016-01-07,09:01～10:00,0.0647,0.0575,0.0605,
江戸川 (Edogawa),2016-01-07,08:01～09:00,0.0626,0.0579,0.0602,
江戸川 (Edogawa),2016-01-07,07:01～08:00,0.0641,0.0559,0.0602,
江戸川 (Edogawa),2016-01-07,06:01～07:00,0.0648,0.0575,0.0603,
江戸川 (Edogawa),2016-01-07,05:01～06:00,0.0621,0.0572,0.0597,
江戸川 (Edogawa),2016-01-07,04:01～05:00,0.0649,0.0579,0.0609,
江戸川 (Edogawa),2016-01-07,03:01～04:00,0.0632,0.0568,0.0601,
江戸川 (Edogawa),2016-01-07,02:01～03:00,0.0627,0.0559,0.0600,
江戸川 (Edogawa),2016-01-07,01:01～02:00,0.0637,0.0570,0.0599,
江戸川 (Edogawa),2016-01-07,00:01～01:00,0.0637,0.0557,0.0598,
江戸川 (Edogawa),2016-01-06,23:01～24:00,0.0618,0.0558,0.0596,
江戸川 (Edogawa),2016-01-06,22:01～23:00,0.0637,0.0575,0.0596,
江戸川 (Edogawa),2016-01-06,21:01～22:00,0.0630,0.0563,0.0594,
江戸川 (Edogawa),2016-01-06,20:01～21:00,0.0625,0.0569,0.0595,
江戸川 (Edogawa),2016-01-06,19:01～20:00,0.0624,0.0557,0.0597,
江戸川 (Edogawa),2016-01-06,18:01～19:00,0.0630,0.0563,0.0598,
江戸川 (Edogawa),2016-01-06,17:01～18:00,0.0628,0.0573,0.0597,
江戸川 (Edogawa),2016-01-06,16:01～17:00,0.0637,0.0561,0.0596,
江戸川 (Edogawa),2016-01-06,15:01～16:00,0.0635,0.0570,0.0598,
江戸川 (Edogawa),2016-01-06,14:01～15:00,0.0633,0.0568,0.0599,
江戸川 (Edogawa),2016-01-06,13:01～14:00,0.0638,0.0562,0.0599,
江戸川 (Edogawa),2016-01-06,12:01～13:00,0.0632,0.0567,0.0601,
江戸川 (Edogawa),2016-01-06,11:01～12:00,0.0625,0.0564,0.0598,
江戸川 (Edogawa),2016-01-06,10:01～11:00,0.0634,0.0575,0.0599,
江戸川 (Edogawa),2016-01-06,09:01～10:00,0.0633,0.0572,0.0598,
江戸川 (Edogawa),2016-01-06,08:01～09:00,0.0631,0.0560,0.0597,
江戸川 (Edogawa),2016-01-06,07:01～08:00,0.0625,0.0565,0.0596,
江戸川 (Edogawa),2016-01-06,06:01～07:00,0.0642,0.0561,0.0596,
江戸川 (Edogawa),2016-01-06,05:01～06:00,0.0641,0.0564,0.0596,
江戸川 (Edogawa),2016-01-06,04:01～05:00,0.0619,0.0559,0.0595,
江戸川 (Edogawa),2016-01-06,03:01～04:00,0.0630,0.0554,0.0591,
江戸川 (Edogawa),2016-01-06,02:01～03:00,0.0625,0.0553,0.0590,
江戸川 (Edogawa),2016-01-06,01:01～02:00,0.0609,0.0550,0.0587,
江戸川 (Edogawa),2016-01-06,00:01～01:00,0.0630,0.0564,0.0592,
江戸川 (Edogawa),2016-01-05,23:01～24:00,0.0631,0.0557,0.0593,
江戸川 (Edogawa),2016-01-05,22:01～23:00,0.0626,0.0576,0.0599,
江戸川 (Edogawa),2016-01-05,21:01～22:00,0.0618,0.0549,0.0598,
江戸川 (Edogawa),2016-01-05,20:01～21:00,0.0625,0.0565,0.0595,
江戸川 (Edogawa),2016-01-05,19:01～20:00,0.0648,0.0560,0.0598,
江戸川 (Edogawa),2016-01-05,18:01～19:00,0.0635,0.0563,0.0600,
江戸川 (Edogawa),2016-01-05,17:01～18:00,0.0637,0.0569,0.0602,
江戸川 (Edogawa),2016-01-05,16:01～17:00,0.0633,0.0567,0.0600,
江戸川 (Edogawa),2016-01-05,15:01～16:00,0.0648,0.0558,0.0603,
江戸川 (Edogawa),2016-01-05,14:01～15:00,0.0652,0.0564,0.0602,
江戸川 (Edogawa),2016-01-05,13:01～14:00,0.0638,0.0562,0.0604,
江戸川 (Edogawa),2016-01-05,12:01～13:00,0.0646,0.0574,0.0607,
江戸川 (Edogawa),2016-01-05,11:01～12:00,0.0641,0.0569,0.0604,
江戸川 (Edogawa),2016-01-05,10:01～11:00,0.0654,0.0567,0.0602,
江戸川 (Edogawa),2016-01-05,09:01～10:00,0.0622,0.0568,0.0599,
江戸川 (Edogawa),2016-01-05,08:01～09:00,0.0638,0.0550,0.0598,
江戸川 (Edogawa),2016-01-05,07:01～08:00,0.0626,0.0569,0.0594,
江戸川 (Edogawa),2016-01-05,06:01～07:00,0.0636,0.0548,0.0595,
江戸川 (Edogawa),2016-01-05,05:01～06:00,0.0621,0.0566,0.0595,
江戸川 (Edogawa),2016-01-05,04:01～05:00,0.0632,0.0561,0.0592,
江戸川 (Edogawa),2016-01-05,03:01～04:00,0.0622,0.0554,0.0590,
江戸川 (Edogawa),2016-01-05,02:01～03:00,0.0631,0.0571,0.0595,
江戸川 (Edogawa),2016-01-05,01:01～02:00,0.0631,0.0547,0.0592,
江戸川 (Edogawa),2016-01-05,00:01～01:00,0.0628,0.0571,0.0596,
江戸川 (Edogawa),2016-01-04,23:01～24:00,0.0634,0.0568,0.0596,
江戸川 (Edogawa),2016-01-04,22:01～23:00,0.0625,0.0557,0.0597,
江戸川 (Edogawa),2016-01-04,21:01～22:00,0.0632,0.0567,0.0597,
江戸川 (Edogawa),2016-01-04,20:01～21:00,0.0626,0.0570,0.0596,
江戸川 (Edogawa),2016-01-04,19:01～20:00,0.0657,0.0569,0.0598,
江戸川 (Edogawa),2016-01-04,18:01～19:00,0.0641,0.0559,0.0597,
江戸川 (Edogawa),2016-01-04,17:01～18:00,0.0633,0.0551,0.0599,
江戸川 (Edogawa),2016-01-04,16:01～17:00,0.0629,0.0558,0.0598,
江戸川 (Edogawa),2016-01-04,15:01～16:00,0.0633,0.0573,0.0602,
江戸川 (Edogawa),2016-01-04,14:01～15:00,0.0646,0.0578,0.0609,
江戸川 (Edogawa),2016-01-04,13:01～14:00,0.0651,0.0585,0.0614,
江戸川 (Edogawa),2016-01-04,12:01～13:00,0.0655,0.0579,0.0612,
江戸川 (Edogawa),2016-01-04,11:01～12:00,0.0672,0.0571,0.0611,
江戸川 (Edogawa),2016-01-04,10:01～11:00,0.0641,0.0580,0.0609,
江戸川 (Edogawa),2016-01-04,09:01～10:00,0.0641,0.0570,0.0607,
江戸川 (Edogawa),2016-01-04,08:01～09:00,0.0645,0.0576,0.0605,
江戸川 (Edogawa),2016-01-04,07:01～08:00,0.0649,0.0564,0.0601,
江戸川 (Edogawa),2016-01-04,06:01～07:00,0.0633,0.0568,0.0604,
江戸川 (Edogawa),2016-01-04,05:01～06:00,0.0639,0.0567,0.0599,
江戸川 (Edogawa),2016-01-04,04:01～05:00,0.0627,0.0565,0.0596,
江戸川 (Edogawa),2016-01-04,03:01～04:00,0.0629,0.0567,0.0596,
江戸川 (Edogawa),2016-01-04,02:01～03:00,0.0632,0.0563,0.0598,
江戸川 (Edogawa),2016-01-04,01:01～02:00,0.0632,0.0557,0.0602,
江戸川 (Edogawa),2016-01-04,00:01～01:00,0.0645,0.0574,0.0599,
